User: anonymous   Login
Location: Unspecified
(0.0000°N, 0.0000°E)
Time: 21:22:58
(UTC+00:00)
Language:

Vanguard 1 Rocket - Orbit

View from above orbital plane
View from above orbital plane
View from above satellite
View from above satellite

Ground track
Ground track

The orbit data is extracted from the following two-line orbital elements,

1    16U 58002A   19082.00163072 +.00000089 +00000-0 +13650-3 0  9996
2    16 034.2660 021.1154 2026422 129.9660 249.7240 10.48739141411333
Epoch (UTC): 23 March 2019 00:02:20
Eccentricity: 0.2026422
inclination: 34.2660°
perigee height: 651 km
apogee height: 4225 km
right ascension of ascending node: 21.1154°
argument of perigee: 129.9660°
revolutions per day: 10.48739141
mean anomaly at epoch: 249.7240°
orbit number at epoch: 41133

The dashed part of the orbit path shows where the satellite is in the earth's shadow,  

DLR